Location: Coleto Creek Park and Reservoir
(28.7196°N, 97.1740°W)
Time: 19:42:54
(UTC-05:00)

Hubble Space Telescope - Visible Passes

Search period start: 24 July 2017 00:00
Search period end: 03 August 2017 00:00
Orbit: 538 x 542 km, 28.5° (Epoch: 24 July)

Date Brightness Start Highest point End Pass type
(mag) Time Alt. Az. Time Alt. Az. Time Alt. Az.
24 Jul 1.8 21:57:06 10° W 22:00:45 30° SSW 22:01:13 29° S visible
25 Jul 2.2 21:47:13 10° WSW 21:50:37 24° SSW 21:51:34 22° S visible
26 Jul 2.6 21:37:26 10° WSW 21:40:27 19° SSW 21:41:57 16° S visible
27 Jul 3.0 21:27:50 10° WSW 21:30:16 15° SSW 21:32:22 11° S visible
28 Jul 3.2 21:18:38 10° SW 21:20:06 12° SSW 21:21:34 10° S visible
